Location: ??????
(31.2056°N, 45.3906°E)
Time: 19:48:19
(UTC+00:00)

CZ-2C R/B - Pass Details

Date: 09 April 2020
Orbit: 705 x 907 km, 98.1° (Epoch: 27 May)

Event Time Altitude Azimuth Distance (km) Brightness Sun altitude
Exits shadow 16:48:39 12° 170° (S) 2,084 4.9 -18.4°
Maximum altitude 16:53:10 82° 258° (WSW) 736 2.9 -19.3°
Drops below altitude 10° 16:57:57 10° 346° (NNW) 2,190 5.8 -20.2°
Sets 17:00:11 0° 347° (NNW) 3,103 6.7 -20.7°
